Temp
-7 -7 -7 -7 -7 -7 -7 -6 -6 -6 -6 -6 -6 -6 -6 -6 -6 -6 -6 -6 -6 -6 -6 -6 -6 -5 -5 -5 -5 -5 -5 -5 -5 -5 -5 -5 -5 -5 -5 -5 -5 -5 -5
-7 -7 -7 -7 -7 -7 -7 -7 -7 -7 -7 -7 -7 -6 -6 -6 -6 -6 -6 -6 -6 -6 -6 -6 -6 -6 -6 -5 -5 -5 -5 -5 -5 -5 -5 -5 -5 -5 -5 -5 -5 -5 -5
-7 -7 -7 -7 -7 -7 -7 -7 -7 -7 -7 -7 -7 -7 -7 -6 -6 -6 -6 -6 -6 -6 -6 -6 -6 -6 -6 -6 -6 -6 -6 -6 -6 -6 -6 -5 -5 -5 -5 -6 -6 -6 -6
-7 -7 -8 -7 -7 -7 -7 -7 -7 -7 -7 -7 -6 -6 -6 -6 -6 -6 -6 -6 -6 -6 -6 -6 -6 -6 -6 -6 -7 -6 -6 -6 -6 -6 -7 -6 -6 -6 -6 -6 -6 -6 -6
-7 -7 -7 -7 -7 -7 -7 -7 -7 -7 -7 -7 -7 -7 -7 -7 -7 -7 -7 -7 -7 -7 -7 -7 -7 -7 -7 -7 -7 -7 -7 -7 -7 -6 -7 -7 -7 -7 -7 -7 -7 -7 -7
-8 -8 -8 -8 -8 -8 -8 -8 -8 -8 -8 -8 -8 -8 -8 -8 -8 -8 -7 -7 -7 -7 -7 -7 -7 -7 -7 -7 -7 -7 -7 -7 -7 -7 -7 -7 -7 -7 -7 -7 -7 -7 -7
-8 -8 -8 -8 -8 -8 -8 -8 -8 -8 -8 -8 -8 -8 -8 -8 -8 -8 -8 -7 -7 -8 -8 -8 -8 -8 -8 -8 -8 -7 -7 -7 -7 -8 -7 -7 -7 -7 -7 -7 -7 -7 -7
-9 -9 -9 -8 -8 -8 -8 -8 -8 -8 -8 -8 -8 -8 -8 -8 -8 -8 -8 -8 -7 -8 -8 -8 -8 -8 -8 -8 -8 -8 -8 -8 -8 -8 -8 -8 -8 -7 -8 -7 -7 -7 -8
-9 -9 -9 -9 -9 -9 -9 -9 -9 -9 -9 -9 -9 -9 -8 -8 -8 -8 -8 -8 -8 -8 -8 -8 -8 -9 -9 -9 -9 -9 -9 -8 -8 -9 -8 -8 -8 -8 -8 -7 -7 -8 -8
-9 -10 -10 -10 -10 -10 -9 -9 -9 -9 -9 -9 -9 -9 -9 -9 -9 -9 -9 -9 -9 -9 -9 -8 -8 -9 -9 -9 -9 -9 -9 -9 -9 -9 -9 -9 -8 -8 -8 -8 -8 -8 -8
-10 -10 -10 -10 -10 -10 -10 -10 -10 -10 -10 -10 -10 -9 -9 -9 -9 -9 -9 -9 -9 -9 -9 -9 -9 -9 -9 -9 -9 -9 -9 -9 -9 -9 -9 -9 -9 -9 -8 -8 -8 -8 -8
-10 -10 -10 -10 -10 -10 -10 -10 -10 -10 -10 -10 -10 -10 -10 -10 -10 -9 -9 -9 -10 -10 -10 -10 -10 -10 -10 -10 -10 -10 -10 -9 -9 -9 -9 -9 -9 -9 -9 -8 -8 -9 -8
-10 -11 -11 -11 -11 -11 -11 -11 -11 -10 -10 -11 -10 -10 -10 -10 -10 -10 -10 -10 -10 -10 -10 -10 -10 -10 -11 -11 -10 -10 -10 -10 -9 -9 -9 -9 -10 -9 -9 -9 -9 -9 -8
-10 -11 -11 -11 -11 -11 -11 -11 -11 -11 -11 -11 -11 -11 -11 -11 -10 -10 -10 -10 -10 -10 -10 -10 -11 -10 -10 -10 -10 -11 -10 -10 -10 -9 -9 -10 -10 -9 -9 -9 -9 -9 -9
-10 -10 -10 -10 -10 -10 -10 -10 -10 -10 -11 -11 -11 -11 -11 -11 -10 -10 -10 -10 -10 -10 -10 -11 -11 -11 -11 -11 -10 -11 -11 -10 -10 -10 -10 -10 -10 -10 -9 -9 -9 -9 -10
-10 -10 -10 -10 -10 -10 -10 -10 -10 -10 -10 -10 -10 -11 -10 -10 -11 -11 -11 -11 -10 -10 -10 -10 -11 -11 -11 -11 -11 -11 -11 -11 -11 -10 -10 -10 -10 -10 -10 -10 -10 -10 -10
-10 -10 -10 -10 -10 -10 -10 -10 -10 -10 -10 -10 -10 -10 -10 -10 -10 -10 -10 -11 -10 -10 -10 -10 -11 -11 -11 -11 -12 -12 -11 -11 -11 -11 -11 -11 -11 -11 -10 -10 -10 -10 -11
-11 -11 -11 -10 -11 -11 -11 -10 -10 -10 -10 -10 -10 -10 -10 -10 -10 -10 -10 -11 -11 -11 -10 -10 -10 -10 -11 -12 -12 -12 -11 -11 -11 -11 -11 -11 -11 -11 -11 -11 -10 -11 -11
-11 -12 -12 -12 -12 -13 -13 -13 -12 -12 -12 -12 -12 -12 -13 -12 -12 -11 -11 -11 -12 -11 -11 -11 -10 -10 -11 -11 -11 -12 -11 -11 -11 -10 -11 -11 -11 -11 -11 -11 -11 -11 -11
-10 -11 -12 -13 -14 -15 -16 -16 -16 -15 -15 -15 -15 -15 -15 -15 -14 -14 -13 -12 -12 -12 -12 -12 -11 -11 -11 -11 -12 -11 -12 -11 -11 -12 -12 -11 -11 -11 -11 -11 -11 -11 -11
-13 -14 -14 -15 -16 -17 -19 -20 -20 -19 -19 -19 -18 -18 -18 -18 -17 -16 -15 -14 -14 -13 -13 -13 -12 -12 -11 -11 -12 -11 -11 -11 -11 -11 -11 -12 -12 -12 -12 -12 -12 -12 -11
-17 -19 -21 -21 -22 -22 -22 -21 -21 -21 -20 -20 -20 -20 -19 -19 -19 -18 -17 -16 -16 -15 -14 -14 -13 -13 -12 -12 -12 -12 -12 -12 -11 -11 -11 -11 -12 -12 -12 -12 -12 -12 -11
-21 -22 -23 -23 -24 -23 -23 -23 -23 -24 -24 -23 -22 -22 -22 -21 -21 -20 -19 -18 -17 -17 -16 -16 -16 -14 -13 -13 -13 -12 -13 -12 -12 -12 -12 -12 -11 -12 -12 -12 -12 -12 -12
-23 -24 -25 -25 -26 -25 -25 -25 -25 -25 -25 -25 -24 -23 -23 -23 -22 -21 -21 -20 -19 -19 -18 -17 -17 -16 -15 -14 -14 -14 -13 -13 -13 -13 -12 -12 -12 -12 -13 -12 -13 -13 -12
-25 -26 -26 -25 -26 -26 -27 -27 -27 -26 -25 -25 -25 -25 -24 -24 -23 -23 -22 -22 -21 -20 -19 -19 -18 -18 -17 -16 -15 -15 -15 -14 -14 -13 -13 -13 -13 -12 -13 -13 -12 -13 -13
-26 -26 -26 -27 -27 -28 -28 -28 -27 -27 -26 -26 -26 -26 -26 -26 -25 -24 -23 -23 -22 -22 -21 -20 -19 -19 -18 -17 -16 -16 -15 -15 -14 -14 -14 -14 -13 -12 -13 -13 -13 -14 -14
Height
5884 5883 5882 5882 5881 5881 5880 5880 5880 5880 5879 5879 5879 5878 5877 5877 5876 5875 5874 5874 5873 5873 5874 5873 5872 5871 5870 5870 5869 5868 5867 5866 5865 5864 5863 5863 5862 5861 5860 5859 5858 5858 5857
5882 5881 5880 5880 5879 5878 5878 5878 5877 5876 5876 5876 5876 5875 5875 5874 5874 5873 5873 5873 5872 5872 5872 5871 5870 5870 5869 5869 5868 5867 5867 5865 5864 5862 5862 5861 5860 5859 5858 5857 5856 5856 5854
5879 5879 5878 5878 5877 5876 5875 5875 5875 5874 5873 5874 5873 5872 5873 5872 5871 5872 5871 5870 5870 5870 5870 5870 5869 5868 5868 5867 5867 5866 5865 5864 5863 5861 5859 5858 5857 5856 5854 5853 5852 5852 5850
5876 5876 5876 5874 5874 5874 5872 5872 5872 5872 5871 5871 5871 5870 5870 5870 5869 5869 5869 5868 5868 5868 5867 5867 5867 5866 5864 5864 5863 5862 5861 5860 5860 5859 5857 5855 5854 5852 5851 5849 5848 5847 5845
5875 5872 5873 5871 5872 5871 5870 5870 5869 5869 5868 5867 5867 5866 5866 5866 5866 5865 5865 5864 5864 5864 5863 5863 5863 5862 5861 5860 5859 5857 5857 5856 5854 5853 5854 5852 5850 5849 5847 5845 5843 5843 5841
5874 5870 5868 5868 5867 5866 5866 5866 5865 5864 5863 5863 5862 5861 5861 5861 5861 5861 5860 5859 5858 5858 5858 5857 5857 5856 5857 5856 5854 5854 5852 5852 5851 5848 5848 5847 5846 5844 5843 5841 5839 5838 5836
5869 5868 5865 5864 5863 5863 5862 5862 5861 5861 5859 5858 5857 5857 5856 5855 5855 5855 5854 5853 5853 5852 5852 5851 5851 5851 5851 5850 5849 5848 5848 5847 5847 5844 5842 5842 5841 5839 5837 5836 5834 5832 5831
5863 5860 5859 5859 5859 5858 5856 5856 5855 5854 5854 5853 5852 5851 5850 5850 5850 5849 5849 5849 5848 5846 5846 5845 5844 5844 5844 5843 5842 5842 5842 5842 5841 5842 5837 5838 5836 5834 5832 5831 5829 5827 5825
5859 5858 5856 5855 5853 5852 5851 5850 5849 5848 5848 5847 5846 5845 5844 5844 5843 5843 5842 5842 5841 5840 5838 5837 5837 5836 5836 5836 5836 5835 5835 5834 5835 5837 5832 5831 5830 5828 5827 5826 5824 5822 5820
5853 5850 5851 5850 5849 5847 5844 5843 5843 5842 5841 5839 5838 5837 5837 5837 5837 5836 5835 5834 5833 5831 5830 5829 5828 5827 5827 5828 5828 5828 5827 5827 5827 5830 5828 5824 5824 5823 5822 5820 5818 5817 5815
5849 5846 5841 5840 5841 5840 5839 5838 5835 5834 5833 5831 5830 5829 5829 5829 5828 5827 5827 5826 5825 5822 5822 5821 5821 5821 5821 5821 5820 5820 5819 5819 5821 5822 5820 5818 5818 5817 5817 5815 5813 5811 5809
5842 5840 5838 5834 5831 5829 5830 5828 5827 5824 5823 5821 5820 5819 5819 5819 5819 5819 5819 5817 5815 5813 5813 5813 5813 5812 5813 5814 5814 5812 5812 5811 5812 5815 5814 5811 5810 5810 5810 5809 5807 5806 5804
5837 5833 5830 5827 5824 5821 5819 5817 5815 5814 5812 5810 5809 5808 5807 5807 5808 5808 5807 5808 5805 5804 5802 5801 5803 5802 5804 5806 5806 5804 5803 5804 5802 5807 5808 5806 5802 5802 5802 5802 5801 5801 5799
5830 5827 5823 5821 5817 5812 5808 5805 5802 5800 5798 5797 5796 5794 5794 5795 5796 5796 5794 5795 5795 5793 5792 5790 5791 5792 5795 5794 5792 5797 5796 5797 5794 5799 5801 5799 5796 5795 5796 5795 5795 5795 5793
5820 5817 5813 5810 5807 5801 5797 5794 5790 5788 5785 5783 5780 5779 5778 5779 5780 5782 5783 5782 5781 5781 5780 5780 5780 5782 5785 5787 5785 5788 5787 5788 5788 5789 5792 5792 5790 5789 5789 5789 5788 5787 5787
5806 5803 5799 5796 5793 5787 5783 5779 5775 5771 5768 5766 5765 5761 5760 5762 5764 5764 5765 5766 5767 5768 5769 5768 5769 5770 5774 5775 5775 5776 5776 5780 5780 5781 5783 5784 5782 5782 5782 5782 5781 5780 5779
5792 5787 5782 5776 5770 5766 5761 5758 5755 5753 5750 5748 5746 5741 5741 5741 5744 5745 5746 5749 5749 5750 5754 5756 5756 5758 5759 5762 5763 5766 5768 5770 5771 5772 5773 5775 5774 5774 5773 5773 5774 5772 5771
5774 5770 5763 5757 5750 5744 5739 5733 5728 5725 5724 5722 5721 5719 5717 5719 5720 5722 5725 5728 5729 5733 5736 5739 5742 5744 5747 5750 5753 5754 5757 5760 5761 5763 5762 5764 5765 5765 5765 5766 5765 5765 5765
5751 5743 5736 5730 5724 5718 5713 5707 5702 5699 5695 5693 5691 5690 5691 5692 5693 5698 5702 5705 5707 5711 5715 5720 5723 5728 5732 5734 5738 5741 5746 5748 5751 5745 5753 5754 5755 5755 5756 5756 5756 5757 5756
5728 5719 5708 5702 5696 5690 5680 5673 5669 5668 5665 5664 5662 5661 5662 5663 5666 5670 5676 5681 5681 5687 5692 5698 5705 5709 5714 5720 5722 5727 5732 5738 5740 5742 5742 5745 5746 5745 5746 5747 5747 5750 5750
5700 5690 5682 5675 5668 5662 5653 5647 5641 5636 5632 5631 5629 5629 5630 5633 5637 5640 5647 5653 5658 5663 5670 5674 5680 5688 5695 5700 5704 5712 5717 5722 5727 5730 5732 5734 5736 5736 5736 5738 5739 5740 5742
5671 5662 5652 5644 5638 5628 5623 5620 5614 5608 5607 5603 5602 5601 5600 5602 5606 5611 5615 5624 5630 5636 5645 5652 5656 5664 5675 5681 5687 5695 5701 5706 5712 5718 5722 5724 5725 5726 5727 5729 5730 5730 5731
5651 5642 5633 5623 5613 5604 5596 5593 5590 5585 5582 5578 5577 5575 5576 5576 5580 5582 5586 5593 5601 5609 5619 5625 5633 5642 5653 5661 5669 5676 5684 5691 5698 5704 5708 5714 5714 5711 5716 5718 5721 5721 5722
5633 5624 5612 5600 5592 5584 5578 5574 5571 5568 5566 5561 5556 5557 5556 5554 5556 5558 5562 5566 5574 5582 5592 5601 5610 5618 5628 5641 5647 5658 5667 5674 5680 5689 5694 5701 5705 5704 5705 5708 5707 5710 5714
5620 5608 5598 5589 5581 5573 5566 5560 5556 5553 5550 5546 5542 5539 5539 5537 5536 5537 5540 5545 5551 5558 5568 5577 5588 5596 5606 5618 5630 5639 5649 5658 5664 5673 5681 5687 5692 5696 5696 5696 5697 5701 5704
5602 5590 5583 5577 5570 5563 5556 5549 5544 5539 5536 5533 5530 5527 5524 5523 5521 5520 5521 5526 5532 5538 5546 5554 5566 5576 5584 5595 5609 5621 5630 5640 5650 5658 5667 5673 5680 5685 5689 5685 5686 5689 5693
Wind_Speed
9 13 13 13 13 12 13 13 14 15 15 15 15 15 16 16 11 8 7 7 7 7 8 7 7 6 6 6 7 7 7 7 8 9 10 11 11 11 11 12 13 14 15
9 15 16 16 17 16 15 16 17 18 18 18 18 18 17 11 12 10 9 9 9 8 8 8 8 8 8 9 10 9 10 10 10 12 13 12 14 15 14 15 15 17 17
9 10 10 11 11 11 11 11 11 12 12 14 13 12 12 12 12 13 12 11 10 10 10 10 10 11 12 13 13 12 12 12 12 13 15 15 15 17 17 18 19 20 20
13 11 12 11 12 13 12 13 13 14 13 12 14 12 13 14 13 14 14 13 14 14 13 14 15 15 15 15 15 14 15 15 14 14 15 18 19 19 19 20 22 23 24
15 17 16 15 16 16 16 17 18 17 17 16 16 17 16 16 16 15 16 15 15 16 16 17 17 18 18 18 18 17 18 18 19 20 19 19 20 20 21 22 23 23 25
15 19 19 18 19 18 19 20 20 20 19 20 19 19 20 19 19 18 18 18 19 20 20 20 20 20 21 21 21 21 21 22 21 24 25 24 23 23 23 25 25 25 27
15 17 20 20 21 22 22 22 22 23 23 23 23 23 23 23 24 23 22 22 24 23 23 23 23 23 23 24 24 24 24 25 24 25 27 26 25 24 24 26 27 28 29
21 21 22 23 23 24 24 24 25 25 26 26 27 28 27 27 28 28 26 26 27 27 26 25 25 24 25 26 26 27 27 26 26 25 29 27 25 26 27 27 28 28 27
23 24 25 26 28 28 28 27 27 27 27 27 28 29 30 30 30 30 30 29 28 28 30 29 28 27 27 27 28 28 29 28 27 25 29 28 27 26 27 27 27 25 25
26 29 27 27 27 30 32 32 32 32 32 32 32 32 32 31 32 33 33 33 31 31 32 32 32 31 30 29 29 30 31 32 30 26 28 28 27 26 25 28 27 26 24
26 29 33 33 31 32 33 35 37 37 37 37 37 37 36 35 35 35 34 34 35 34 34 34 34 35 34 32 32 33 33 34 32 30 29 29 26 26 28 27 26 25 24
31 32 32 35 37 38 36 37 38 41 42 43 44 43 42 41 39 39 40 39 39 41 40 39 37 39 36 36 36 34 35 34 33 32 31 30 29 29 29 28 27 25 24
34 36 36 37 40 42 43 44 45 45 45 45 46 48 48 48 46 44 44 42 43 44 45 45 45 40 38 34 44 37 34 34 34 30 31 31 31 31 29 29 28 23 20
36 39 42 43 45 48 48 48 49 50 52 52 53 52 51 49 50 49 49 47 47 48 48 47 44 45 36 35 33 29 31 33 33 31 30 32 32 32 30 30 29 28 26
47 49 51 53 54 58 60 61 59 58 57 58 59 60 59 57 54 52 52 52 50 49 49 48 48 43 37 35 32 29 29 32 34 33 33 33 34 35 33 31 31 31 32
57 59 61 63 64 67 70 71 72 71 72 71 67 65 66 65 63 60 57 56 56 55 53 51 49 47 43 42 44 37 31 32 35 37 36 34 35 35 35 33 34 34 35
62 66 69 70 72 74 76 79 80 81 83 82 80 79 77 71 70 70 68 64 62 62 60 58 55 51 48 44 43 41 39 35 36 36 37 35 36 37 36 35 35 35 36
72 73 75 76 78 80 81 83 85 87 89 89 86 85 84 82 80 75 74 73 71 68 67 65 64 58 53 50 48 46 43 42 40 42 36 35 35 37 37 35 37 37 37
85 83 76 77 80 83 84 84 87 88 90 92 91 89 84 84 81 80 79 78 78 76 73 71 68 67 61 58 54 52 49 46 43 32 40 37 39 38 37 37 39 36 37
93 92 88 86 86 86 89 89 90 92 92 90 88 85 84 84 83 81 81 82 83 83 81 78 75 71 68 64 60 56 52 49 49 49 46 41 39 38 37 36 37 36 35
90 93 94 90 90 90 87 89 91 90 85 82 82 78 79 80 83 85 85 84 86 87 87 84 83 80 76 71 68 63 59 55 53 53 50 44 41 41 40 37 36 33 36
88 87 85 85 85 90 89 84 78 75 74 73 72 73 74 74 77 82 88 88 88 89 89 87 86 85 82 76 72 68 65 59 58 55 51 48 45 46 44 41 41 41 35
84 81 83 86 85 83 81 73 66 61 62 62 62 62 63 64 65 72 79 85 88 89 89 85 82 85 83 80 77 73 58 64 61 58 54 47 43 39 42 47 46 45 42
81 82 83 79 78 71 65 60 56 54 50 51 54 54 55 58 61 64 66 72 78 81 82 87 83 83 84 81 79 75 69 54 57 60 58 47 54 60 49 47 53 48 47
80 75 70 63 59 57 53 45 46 47 45 43 44 47 48 52 55 59 63 61 64 70 73 77 81 79 81 81 78 74 71 67 63 56 54 55 50 48 52 53 52 54 52
75 62 52 48 43 42 45 46 45 42 39 34 35 38 37 38 44 50 57 59 59 60 63 67 70 75 77 78 77 74 67 65 65 60 57 53 48 42 55 52 41 50 53
Wind_Direction
255 276 275 269 261 256 258 257 260 259 259 264 268 272 278 284 286 291 282 279 289 291 295 299 300 301 302 300 299 303 302 302 302 303 299 298 296 294 290 293 294 294 295
259 269 278 274 277 275 273 270 266 263 264 266 268 275 279 273 280 279 282 284 289 289 286 291 298 301 302 298 300 300 302 302 303 297 297 294 293 291 288 284 283 284 286
297 291 297 292 286 282 288 288 287 287 281 277 277 281 278 283 283 285 285 283 282 284 285 289 290 292 294 293 295 294 291 292 293 292 294 295 288 286 287 287 287 287 289
296 292 292 289 283 284 287 288 289 285 286 287 291 289 290 290 287 286 287 287 288 285 285 280 276 278 279 281 285 286 287 287 286 283 286 290 288 286 284 284 286 288 289
295 294 290 289 287 289 288 288 286 284 284 284 282 286 283 281 279 277 276 275 277 277 277 277 278 277 278 281 287 289 292 293 294 297 294 288 284 282 283 282 283 285 286
297 292 295 293 289 285 281 279 279 279 278 277 276 275 276 275 273 271 272 275 277 277 277 277 277 278 276 282 283 286 289 291 292 297 300 296 291 287 289 290 288 288 287
299 293 292 286 285 284 284 284 282 281 281 281 280 277 276 276 276 275 276 275 275 275 275 276 277 277 276 276 278 281 284 287 290 296 297 296 295 290 293 293 293 293 293
308 297 289 291 290 290 286 285 284 283 282 280 280 280 280 279 279 279 276 275 276 277 276 275 273 272 272 272 273 275 277 279 284 292 292 292 289 289 291 292 295 294 294
303 301 301 300 298 295 292 290 289 286 286 284 282 281 280 280 278 278 278 276 273 272 274 274 272 271 271 270 271 271 275 276 280 287 290 291 289 286 288 293 292 292 298
311 306 302 299 297 297 297 295 293 289 286 284 283 281 281 281 281 280 279 278 276 273 271 272 271 270 268 268 269 271 275 276 277 280 284 288 286 286 286 294 290 292 300
303 301 302 300 297 294 294 295 294 292 290 287 284 282 281 279 277 277 277 278 276 272 270 271 271 271 270 270 268 270 272 275 279 281 282 283 283 282 287 292 289 292 296
305 303 302 300 299 298 297 294 293 293 293 292 290 286 282 279 277 275 275 273 271 273 274 275 275 273 272 271 270 268 271 274 279 282 281 281 280 280 286 290 289 288 292
311 309 307 305 304 303 302 299 296 292 289 286 285 285 284 283 280 275 273 272 272 274 273 275 278 268 277 270 271 263 269 274 276 278 280 275 276 278 284 287 284 283 289
300 299 299 299 299 295 294 294 292 291 289 286 284 281 279 278 278 277 277 275 273 271 270 272 269 280 274 290 268 257 270 273 275 275 275 277 276 277 279 282 280 274 283
298 295 294 293 292 291 291 289 288 287 287 284 282 279 277 276 275 274 273 273 272 271 271 270 270 273 273 271 256 269 267 273 272 273 274 274 275 274 275 278 278 279 282
298 296 293 292 291 290 289 286 283 283 283 281 282 279 276 274 272 271 269 269 270 268 268 270 270 271 270 267 271 278 268 268 271 274 271 271 272 272 276 273 273 276 280
301 300 298 297 295 292 291 288 286 284 282 280 279 279 277 275 272 268 266 265 264 265 267 265 265 267 268 268 268 266 270 271 271 271 271 271 267 269 271 271 273 273 276
310 308 303 298 296 294 292 289 288 284 280 277 276 276 276 273 273 269 265 264 262 261 261 261 264 263 264 263 263 264 267 270 272 264 265 266 270 268 269 272 271 270 273
313 310 298 293 291 291 288 282 278 277 276 277 276 274 271 270 268 267 265 262 261 259 257 256 255 258 258 258 258 261 263 265 270 271 275 269 270 270 270 270 269 269 272
311 307 300 294 290 289 289 286 282 280 277 273 271 270 268 265 261 260 259 257 256 255 255 254 254 254 253 257 256 254 256 259 260 261 268 265 266 267 269 269 271 269 271
306 302 298 293 290 287 287 287 286 283 281 278 275 271 267 262 257 255 253 250 251 251 251 252 252 252 251 250 253 255 254 255 255 259 263 265 263 263 266 265 266 262 272
301 300 300 297 294 291 291 291 287 282 279 276 273 271 267 263 259 253 251 249 248 247 247 248 249 250 250 249 249 251 251 250 252 252 256 262 267 259 262 263 261 263 260
299 301 297 296 295 295 295 293 290 286 283 279 275 270 266 262 258 254 252 250 248 247 245 244 245 247 248 248 248 247 247 249 250 249 250 254 262 243 260 262 262 261 259
300 299 299 300 299 298 295 293 290 288 282 277 273 269 266 264 259 254 251 249 248 247 247 246 243 243 244 244 246 245 243 244 246 246 248 244 240 255 263 266 262 258 265
297 299 298 299 296 292 292 294 295 290 286 281 279 274 269 264 261 258 255 251 248 247 245 244 243 242 243 244 243 244 243 242 242 242 243 242 246 252 260 256 256 264 259
300 304 299 293 293 298 302 304 302 298 294 285 280 278 277 273 267 262 256 253 249 247 244 242 241 240 240 240 241 240 240 239 242 241 241 241 245 262 245 259 247 259 261